Flag for U.S.A. Weather past 2 weeks in Cape Coral, Florida, U.S.A.

Now
76 °F

Sunny.


Feels Like: 78 °F
Forecast: 55 / 75 °F
Wind: 8 mph from South

Location: Page Field

Current Time: Feb 1, 2015 at 2:17:35 PM

Latest Report: Feb 1, 2015 at 1:53 PM


Visibility: 10 mi

Pressure: 30.11 "Hg

Humidity: 42%

Dew point: 51 °F

Location of Cape CoralLocation

Historic Weather in Cape Coral — Graph

°F

Cape Coral temperature yesterday

Maximum temperature yesterday: 75 °F (at 1:53 PM)
Minimum temperature yesterday: 48 °F (at 6:53 AM)
Average temperature yesterday: 62 °F

Past Weeks' High & Low Weather Summary

 TemperatureHumidityPressure
High82 °F (Jan 21, 4:53 PM)97% (Jan 18, 2:53 AM)30.30 "Hg (Jan 18, 2:53 AM)
Low46 °F (Jan 29, 6:53 AM)27% (Jan 28, 4:53 PM)29.82 "Hg (Jan 24, 3:53 AM)
Average64 °F71%30.09 "Hg
* Reported Jan 17 12:53 PM — Feb 1 12:53 PM, Cape Coral, Weather by CustomWeather, © 2014

Note: Actual official high and low records may vary slightly from our data, if they occured in-between our weather recording intervals... More about our weather records

Advertising

Cape Coral weather history for previous 24 hours

 ConditionsComfort  
Time TempWeatherWind HumidityBarometerVisibility
12:53 PM
Feb 1
76 °FSunny.10 mph43%30.16 "Hg10 mi
11:53 AM73 °FSunny.16 mph48%30.20 "Hg10 mi
10:53 AM72 °FSunny.14 mph48%30.22 "Hg10 mi
9:53 AM69 °FSunny.10 mph57%30.23 "Hg10 mi
8:53 AM62 °FSunny.8 mph73%30.23 "Hg10 mi
7:53 AM55 °FSunny.3 mph90%30.22 "Hg10 mi
6:53 AM52 °FPassing clouds.5 mph93%30.21 "Hg10 mi
5:53 AM53 °FClear.3 mph89%30.21 "Hg10 mi
4:53 AM54 °FPassing clouds.7 mph90%30.19 "Hg10 mi
3:53 AM54 °FPassing clouds.3 mph90%30.20 "Hg10 mi
2:53 AM54 °FPassing clouds.7 mph86%30.21 "Hg10 mi
1:53 AM54 °FClear.5 mph86%30.21 "Hg10 mi
12:53 AM56 °FClear.6 mph81%30.22 "Hg10 mi
11:53 PM
Jan 31
57 °FClear.6 mph81%30.23 "Hg10 mi
10:53 PM59 °FClear.7 mph75%30.24 "Hg10 mi
9:53 PM60 °FClear.7 mph72%30.24 "Hg10 mi
8:53 PM62 °FClear.7 mph65%30.24 "Hg10 mi
7:53 PM64 °FClear.9 mph58%30.23 "Hg10 mi
6:53 PM66 °FClear.8 mph52%30.22 "Hg10 mi
5:53 PM69 °FSunny.12 mph49%30.20 "Hg10 mi
4:53 PM72 °FSunny.14 mph44%30.19 "Hg10 mi
3:53 PM74 °FPassing clouds.12 mph40%30.18 "Hg10 mi
2:53 PM75 °FPassing clouds.8 mph39%30.19 "Hg10 mi
Weather by CustomWeather, © 2014

See weather overviewHow to use our weather pages